Powrót do katalogu

STARLINK-36901

AktywnyŁącznośćSSO
NORAD 67974·PAYLOAD·🇺🇸 United States

Wystrzelony Feb 25, 2026 z Vandenberg Space Force Base

Loading…

Następne Przeloty (najbliższe 24 godziny)

TLE

ŚwieżeSource: CelesTrak SupGP

Epoka: Sep 15, 2026, 04:20 UTC

1 67974C 26038P   26258.18104167 -.00060205  00000+0 -18694-2 0  2585
2 67974  97.2845 266.6068 0001638  91.2680  98.1297 15.33460166    10

Śledź STARLINK-36901 w czasie rzeczywistym z AllMySat

Download on the App Store